Location: Budínek
(49.7547°N, 14.1897°E)
Time: 23:52:51
(UTC+00:00)

Daily predictions for brighter satellites

Satellite Brightness Start Highest point End
(mag) Time Altitude Azimuth Time Altitude Azimuth Time Altitude Azimuth
CORIOLIS 4.5 15:34:22 10° SE 15:39:23 44° ENE 15:44:26 10° N
GEOS 3 Rocket 4.2 15:39:27 10° NE 15:44:38 46° SE 15:49:46 10° SSW
IGS 5A 3.4 15:40:52 10° SSE 15:44:44 58° ENE 15:48:40 10° N
Cosmos 1626 Rocket 3.6 15:40:37 10° N 15:44:53 54° ENE 15:49:06 10° SSE
Cosmos 2084 4.1 15:40:57 10° WSW 15:45:02 48° NW 15:49:05 10° NE
MOS 1 Rocket 4.3 15:41:50 10° ESE 15:45:58 28° ENE 15:50:17 10° N
Cosmos 2227 Rocket 3.0 15:42:19 10° NNW 15:47:17 30° NE 15:52:14 10° ESE
NOSS 2-2 (D) 3.1 15:47:49 10° SSW 15:51:04 48° SE 15:53:56 11° NE
Cosmos 2369 Rocket 3.7 15:46:42 10° WSW 15:51:39 30° NW 15:56:39 10° NNE
Cosmos 2084 Rocket 3.8 15:48:58 10° NW 15:53:00 43° NE 15:57:02 10° ESE
Thor Agena Rocket 3.6 15:48:27 10° SSE 15:53:36 64° ENE 15:58:43 10° N
Cosmos 724 4.3 15:48:32 10° NW 15:54:37 65° NE 16:00:30 10° SE
SJ-12 4.5 15:52:13 10° SE 15:55:33 30° ENE 15:58:53 10° N
BlueWalker 3 2.8 15:52:58 10° WNW 15:56:30 49° SSW 16:00:01 10° SE
Cosmos 1356 Rocket 3.6 15:54:37 10° SSW 15:58:40 72° WNW 16:02:45 10° N
Meteor 1-28 Rocket 2.9 15:56:20 10° NNE 15:59:40 62° ESE 16:02:58 10° S
Cosmos 1544 Rocket 3.6 15:59:12 10° S 16:03:32 60° E 16:07:54 10° NNE
Cosmos 1484 Rocket 3.0 16:00:32 10° S 16:04:02 66° WSW 16:07:32 10° NNW
IRS-1C 4.3 15:59:37 10° SE 16:04:45 52° ENE 16:09:55 10° N
Cosmos 1697 Rocket 3.8 16:00:36 10° SSE 16:05:03 25° ESE 16:09:00 12° NE
NOSS 2-2 (E) 2.9 16:02:26 10° SSW 16:05:44 54° SE 16:08:05 15° NE
BREEZE M DEB (TANK) 4.2 15:51:24 10° WNW 16:07:24 71° SSW 16:11:31 10° ESE
Intercosmos 24 3.8 16:05:06 10° NNW 16:09:05 82° W 16:12:37 10° S
Cosmos 405 Rocket 2.8 16:06:02 10° NNW 16:09:16 62° W 16:12:27 10° S
Cosmos 1634 Rocket 4.2 16:03:28 10° SSW 16:09:40 79° W 16:15:52 10° N
Okean 1-7 Rocket 4.0 16:07:24 10° N 16:11:33 39° ENE 16:15:39 10° SE
Lacrosse 5 rocket 1.8 16:10:03 10° W 16:13:39 43° NNW 16:16:22 15° NE
Cosmos 1461 3.6 16:14:25 10° S 16:17:54 32° ESE 16:20:08 18° ENE
CENTAUR R/B 3.2 16:12:38 10° WSW 16:18:24 52° NW 16:25:22 11° NE
Gbstr 26 Del rocket 4.4 16:15:29 10° S 16:18:32 20° SE 16:20:36 14° E
IRIDIUM 114 4.4 16:14:05 10° N 16:19:16 59° E 16:24:25 10° SSE
Cosmos 1777 Rocket 4.2 16:15:08 10° S 16:20:13 52° ESE 16:25:09 11° NNE
Meteor 1-20 Rocket 4.1 16:15:12 10° N 16:20:39 64° ENE 16:26:04 10° SSE
Cosmos 1602 Rocket 3.4 16:18:53 10° N 16:23:18 73° ENE 16:27:38 10° SSE
Cosmos 2279 Rocket 4.0 16:18:02 10° S 16:24:15 86° W 16:30:32 10° N
IRIDIUM 103 4.3 16:23:13 10° N 16:28:28 71° E 16:33:40 10° S
SMAP 3.2 16:25:36 10° SSE 16:30:15 79° WSW 16:34:57 10° NNW
ERS-1 4.4 16:25:53 10° SSE 16:30:52 69° ENE 16:35:50 10° N
Cosmos 1656 3.8 16:26:40 10° SSW 16:32:17 83° WNW 16:37:56 10° NNE
UNK 3.7 16:27:54 10° NNE 16:32:32 85° ESE 16:37:06 10° SSW
YAOGAN 1 3.3 16:30:30 10° SE 16:34:09 28° ENE 16:37:49 10° N
Cosmos 2228 4.4 16:31:42 10° SW 16:35:39 38° WNW 16:39:39 10° N
Landsat 7 3.7 16:31:05 10° SSE 16:35:44 89° WSW 16:40:25 10° NNW
SAR-Lupe-4 3.5 16:32:30 10° SSE 16:36:03 90° E 16:39:38 10° NNW
NOSS 2-2 (C) 4.1 16:33:32 10° WSW 16:36:19 29° NW 16:38:05 17° NNE
Cosmos 1867 3.5 16:31:18 10° NW 16:36:47 75° NE 16:42:14 10° SE
Cosmos 1486 Rocket 4.0 16:32:02 10° SSW 16:37:15 88° ESE 16:42:24 11° NNE
NOSS 7 (H) 4.0 16:36:39 10° NW 16:39:33 63° NE 16:41:17 23° ESE
USA 215 3.7 16:35:28 19° ENE 16:39:58 48° N 16:46:12 10° WNW
USA 290 3.0 16:37:19 10° NNW 16:40:30 54° WSW 16:43:41 10° S
Cosmos 2297 Rocket 2.6 16:34:54 10° NNW 16:40:32 67° WSW 16:46:08 10° SSE
Cosmos 2180 Rocket 4.5 16:35:38 10° S 16:41:46 89° WNW 16:47:59 10° N
SAR-Lupe-1 4.1 16:41:30 10° SSE 16:45:06 83° WSW 16:48:45 10° NNW
Cosmos 1782 3.6 16:42:33 10° SSW 16:46:00 45° WNW 16:49:29 10° N
Cosmos 1953 Rocket 4.0 16:41:59 10° N 16:46:10 39° ENE 16:50:21 10° SE
IRIDIUM 106 4.4 16:41:33 10° N 16:46:48 84° W 16:52:01 10° S
ATLAS CENTAUR R/B 3.1 16:44:49 10° WNW 16:47:34 26° WSW 16:50:14 10° S
CZ-4C R/B 3.0 16:41:55 10° NW 16:48:49 84° SW 16:57:26 10° SE
Cosmos 1607 4.4 16:43:48 10° NW 16:49:58 65° WSW 16:56:10 10° SSE
CZ-2D R/B 3.3 16:48:34 10° S 16:51:40 57° W 16:54:47 10° NNW
IRS-P3 4.1 16:49:12 10° SSE 16:54:32 89° WSW 16:59:53 10° NNW
Meteor 1-25 Rocket 4.3 16:50:07 10° NNW 16:55:59 88° W 17:01:46 10° S
USA 81 4.3 16:51:17 10° N 16:56:17 42° ENE 17:01:16 10° SSE
ARIANE 5 R/B 3.0 16:51:21 10° S 16:56:20 62° WSW 17:01:27 10° NNW
Lacrosse 4 Rocket 3.7 16:53:43 10° WNW 16:56:21 17° NW 16:59:00 10° N
Cosmos 1825 Rocket 3.4 16:52:42 10° N 16:57:04 81° ENE 17:01:24 10° SSE
Cosmos 990 Rocket 4.0 16:52:11 10° S 16:57:09 54° ESE 16:59:48 27° NE
Cosmos 2219 3.7 16:52:03 10° NNW 16:57:25 39° NE 16:59:37 28° E
Cosmos 2266 Rocket 4.2 16:53:16 10° NNW 16:59:25 73° W 17:05:27 10° S
NOSS 2-3 (E) 4.0 16:56:14 10° S 16:59:21 31° SE 16:59:21 31° SE
NOAA 6 4.3 16:56:20 10° SE 17:01:04 41° ENE 17:05:50 10° N
NOSS 2-3 (D) 4.1 16:58:13 10° S 17:01:12 30° SE 17:01:12 30° SE
Cosmos 2098 Rocket 4.2 16:58:32 10° SSW 17:02:29 44° WNW 17:07:08 10° N
Meteor 1-5 Rocket 4.0 16:58:09 10° N 17:03:30 72° ENE 17:08:56 10° SSE
Cosmos 2151 4.1 17:00:37 10° NNW 17:04:35 44° W 17:08:32 10° SSW
SPOT 1/Viking Rocket 3.4 17:01:03 10° SSE 17:06:15 81° ENE 17:11:29 10° NNW
Cosmos 1980 Rocket 2.8 17:02:20 10° S 17:07:23 35° ESE 17:08:01 34° E
Cosmos 1844 Rocket 4.1 17:07:34 10° N 17:10:59 21° NNE 17:10:59 21° NNE
SL-16 R/B 4.0 17:09:22 10° N 17:14:55 35° WNW 17:20:24 10° WSW
Cosmos 2058 Rocket 4.0 17:11:49 10° SSE 17:14:42 33° SE 17:14:42 33° SE
Cosmos 2263 Rocket 2.1 17:13:21 10° NNW 17:19:02 71° ENE 17:23:09 19° SE
NOSS 3-2 (C) 3.2 17:15:05 10° SW 17:20:12 78° NW 17:23:02 32° NE
NOSS 3-2 (A) 4.1 17:15:38 10° WSW 17:20:41 43° NNW 17:24:05 23° NNE
Cosmos 1553 Rocket 4.3 17:16:05 10° SSE 17:21:45 41° E 17:22:04 40° E
GEOS 3 Rocket 4.4 17:19:36 24° NNE 17:22:37 49° NW 17:27:46 10° WSW
MOS 1 Rocket 4.4 17:19:00 10° S 17:23:42 49° W 17:28:43 10° NNW
Cosmos 1076 Rocket 3.5 17:22:07 10° NNW 17:26:25 79° W 17:30:44 10° S
BREEZE M DEB (TANK) 4.1 17:24:27 10° WSW 17:25:21 21° SW 17:25:21 21° SW
Cosmos 1933 4.1 17:24:51 10° SSW 17:28:33 47° WNW 17:30:45 22° N
Cosmos 2227 Rocket 2.7 17:26:08 10° NW 17:31:43 60° WSW 17:37:14 10° S
Cosmos 1606 Rocket 4.3 17:27:43 10° SSW 17:32:02 54° WNW 17:35:23 16° N
Cosmos 1538 Rocket 3.9 17:27:22 10° NNW 17:32:41 85° ENE 17:36:28 20° SSE
PSLV R/B 3.3 17:36:04 80° SSW 17:36:15 84° WSW 17:40:20 10° NNW
CZ-2D R/B 3.9 17:32:55 10° S 17:37:04 60° WSW 17:41:12 10° NNW
COSMO-SKYMED 1 2.8 17:39:14 55° S 17:39:14 55° S 17:42:30 10° SSW
SL-19 R/B 4.2 17:35:18 10° SSE 17:40:40 83° WSW 17:46:21 10° NNW
Meteor 2-2 Rocket 4.1 17:35:08 10° S 17:40:36 60° E 17:40:36 60° E
Resurs 1-3 3.8 17:36:48 10° S 17:41:05 69° WSW 17:45:23 10° NNW
Cosmos 1244 Rocket 4.3 17:35:25 10° N 17:41:45 76° E 17:47:58 10° SSE
BREEZE-M DEB (TANK) 4.1 17:40:45 10° W 17:44:40 76° SSW 17:48:32 36° ESE
Meteor 2-20 4.5 17:41:29 10° SSW 17:47:38 79° W 17:53:50 10° N
Cosmos 1697 Rocket 3.0 17:43:01 10° SW 17:48:34 62° WNW 17:50:45 37° N
Lacrosse 5 rocket 3.2 17:48:10 10° WNW 17:49:58 20° NW 17:49:58 20° NW
BREEZE-M DEB (TANK) 4.3 17:49:47 10° WNW 17:53:53 79° NNE 17:57:03 45° E
Cosmos 1461 4.1 17:50:59 10° WSW 17:54:18 35° NW 17:54:18 35° NW
SL-08 R/B 4.4 17:53:40 10° N 18:00:02 86° E 18:06:23 10° S
Gbstr 26 Del rocket 4.4 18:00:31 10° WSW 18:02:38 30° WSW 18:02:38 30° WSW
Cosmos 1898 Rocket 4.5 18:00:17 10° SSW 18:03:17 36° S 18:03:17 36° S
YAOGAN 1 4.1 18:06:02 10° SSW 18:09:55 34° W 18:13:50 10° NNW
CENTAUR R/B 4.1 18:04:58 10° WNW 18:10:45 29° N 18:12:28 27° NNE
USA 281 4.3 18:17:15 29° N 18:17:15 29° N 18:20:48 10° NNW
Cosmos 2082 3.9 18:12:05 10° NNW 18:17:04 67° NW 18:17:04 67° NW
Meteor 1-26 Rocket 4.5 18:13:27 10° SSW 18:18:03 60° SW 18:18:03 60° SW
USA 238 DEB 3.4 18:14:10 10° SW 18:19:57 81° SW 18:19:57 81° SW
USA 238 3.4 18:14:16 10° SW 18:20:02 80° SW 18:20:02 80° SW
USA 215 3.2 18:22:49 68° N 18:22:49 68° N 18:29:03 10° WNW
Cosmos 2219 4.1 18:36:13 10° NW 18:41:35 45° WSW 18:41:35 45° WSW
Cosmos 1980 Rocket 3.4 18:45:47 10° SW 18:49:48 39° W 18:49:48 39° W
Cosmos 2263 Rocket 4.3 18:58:08 10° NW 19:02:24 22° WSW 19:04:58 16° SW
